User: anonymous   Login
Location: Cochran
(32.3868°N, 83.3546°W)
Time: 06:41:56
(UTC+00:00)
Language:

CZ-4 R/B - Orbit

View from above orbital plane
View from above orbital plane
View from above satellite
View from above satellite

Ground track
Ground track

The orbit data is extracted from the following two-line orbital elements,

1 28414U 04035B   20152.57657345 -.00000693 +00000-0 -59291-4 0  9993
2 28414 097.7635 172.3714 0007037 028.8703 331.2906 14.94244326856415
Epoch (UTC): 31 May 2020 13:50:15
Eccentricity: 0.0007037
inclination: 97.7635°
perigee height: 580 km
apogee height: 589 km
right ascension of ascending node: 172.3714°
argument of perigee: 28.8703°
revolutions per day: 14.94244326
mean anomaly at epoch: 331.2906°
orbit number at epoch: 85641

The dashed part of the orbit path shows where the satellite is in the earth's shadow,  

DLR